Location: *
(45.9500°N, 9.0833°E)
Time: 00:06:25
(UTC+00:00)

Tiros 1 despin weight - Pass Details

Date: 22 June 2021
Orbit: 593 x 642 km, 48.2° (Epoch: 02 August)

Event Time Altitude Azimuth Distance (km) Brightness Sun altitude
Rises 11:18:04 0° 278° (W) 2,834 ? 67.4°
Reaches altitude 10° 11:22:14 10° 240° (WSW) 1,936 ? 67.5°
Maximum altitude 11:23:13 11° 227° (SW) 1,893 ? 67.5°
Drops below altitude 10° 11:24:13 10° 214° (SSW) 1,938 ? 67.5°
Sets 11:28:25 0° 176° (S) 2,849 ? 67.5°
